Regional Weather Roundup
Issued by NWS Cleveland, OH

Home | Current Version | Previous Version | Text Only | Print | Product List | Glossary Off
Versions: 1 2 3 4 5 6 7 8 9 10 11 12 13 14 15 16 17 18 19 20 21 22 23 24 25 26 27 28 29 30 31 32 33 34 35 36 37 38 39 40 41 42 43 44 45 46 47 48 49 50

000
ASUS41 KCLE 251112
RWRCLE
OHIO REGIONAL WEATHER ROUNDUP
NATIONAL WEATHER SERVICE WILMINGTON, OH
700 AM EDT MON SEP 25 2017

NOTE: "FAIR" INDICATES FEW OR NO CLOUDS BELOW 12,000 FEET WITH NO
SIGNIFICANT WEATHER AND/OR OBSTRUCTIONS TO VISIBILITY.

OHZ001>008-015>018-024>027-034-035-043-044-251200-
   NORTHWEST OHIO

CITY           SKY/WX    TMP DP  RH WIND       PRES   REMARKS
DEFIANCE       FOG       62  60  93 CALM      30.06S VSB 1/2
FINDLAY        FAIR      67  63  87 SE3       30.05R
TOLEDO EXPRESS FAIR      66  66 100 CALM      30.05R FOG
TOLEDO EXEC    FAIR      66  65  96 CALM      30.06S FOG
LIMA           FAIR      60  59  96 CALM      30.07R
$$

OHZ009>014-019>023-028>033-038-089-251200-
   NORTHEAST OHIO

CITY           SKY/WX    TMP DP  RH WIND       PRES   REMARKS
CLE-HOPKINS    MOCLDY    72  65  78 CALM      30.08R
CLE-LAKEFRONT  FAIR      74  64  71 SE10      30.05R
CUY CO. ARPT   PTCLDY    73  66  78 SE7       30.08
LORAIN-ELYRIA  FAIR      64  58  80 W3        30.07R
ASHTABULA      FAIR      68  65  90 SE6       30.10R
AKRON-CANTON   FAIR      69  62  78 E3        30.09R
WOOSTER        FAIR      58  57  97 CALM      30.09R FOG
MANSFIELD      FAIR      64  61  90 CALM      30.09R
YOUNGSTOWN     MOCLDY    65  63  93 E6        30.10R
$$

OHZ042-051>053-060>062-070>072-077>081-251200-
  SOUTHWEST OHIO

CITY           SKY/WX    TMP DP  RH WIND       PRES   REMARKS
CINC-COVINGTON FAIR      65  60  84 CALM      30.05R
CINC-LUNKEN    FAIR      59  59 100 CALM      30.05S
HAMILTON       FAIR      57  57 100 CALM      30.06R
DAYTON         FAIR      64  58  80 CALM      30.07R
WRIGHT-PAT AFB FAIR      61  61 100 CALM      30.05S
DAYTON GENERAL FAIR      63  59  87 NE6       30.05R
WILMINGTON     FAIR      60  60 100 CALM      30.06R
$$

OHZ036-037-039>041-045>050-054>059-063>069-073>076-082>088-251200-
  CENTRAL AND SOUTHEAST OHIO

CITY           SKY/WX    TMP DP  RH WIND       PRES   REMARKS
COLUMBUS       FAIR      67  63  87 CALM      30.05R
OSU AIRPORT    FAIR      63  63 100 CALM      30.06R
BOLTON FIELD   NOT AVBL
RICKENBACK AFB FAIR      63  62  97 CALM      30.05R
NEWARK         FAIR      61  59  93 CALM      30.06R FOG
MARION         FAIR      63  58  83 CALM      30.07R
LANCASTER      FOG       58  58 100 CALM      30.06R VSB 1
ZANESVILLE     FAIR      63  60  90 CALM      30.07R
NEW PHILLY     FAIR      61  61 100 CALM      30.09R FOG
$$




USA.gov is the U.S. government's official web portal to all federal, state and local government web resources and services.